User: anonymous   Login
Location: Unspecified
(0.0000°N, 0.0000°E)
Time: 00:05:58
(UTC+00:00)
Language:

AMOS 1 - Orbit

View from above orbital plane
View from above orbital plane
View from above satellite
View from above satellite

Ground track
Ground track

The orbit data is extracted from the following two-line orbital elements,

1 23865U 96030B   16150.86293294 -.00000138 +00000-0 +00000-0 0  9991
2 23865 006.4053 056.7243 0009637 101.6864 045.1875 00.97118449072936
Epoch (UTC): 29 May 2016 20:42:37
Eccentricity: 0.0009637
inclination: 6.4053°
perigee height: 36652 km
apogee height: 36735 km
right ascension of ascending node: 56.7243°
argument of perigee: 101.6864°
revolutions per day: 0.97118449
mean anomaly at epoch: 45.1875°
orbit number at epoch: 7293

The dashed part of the orbit path shows where the satellite is in the earth's shadow,  

DLR